Flag for Congo Weather past 2 weeks in Pointe-Noire, Congo

Now
73 °F

Passing clouds.


Feels Like: 70 °F
Forecast: 79 / 87 °F
Wind: 6 mph from East

Location: Pointe Airport-Noire

Current Time: Mar 7, 2015 at 6:02:35 AM

Latest Report: Mar 7, 2015 at 5:00 AM


Visibility: 5 mi

Pressure: 29.83 "Hg

Humidity: 94%

Dew point: 72 °F

Location of Pointe-NoireLocation

Historic Weather in Pointe-Noire — Graph

°F

Pointe-Noire temperature yesterday

Maximum temperature yesterday: 86 °F (at 10:00 AM)
Minimum temperature yesterday: 75 °F (at 5:00 PM)
Average temperature yesterday: 79 °F

Past Weeks' High & Low Weather Summary

 TemperatureHumidityPressure
High88 °F (Feb 23, 1:00 PM)100% (Feb 20, 5:00 AM)29.92 "Hg (Feb 20, 5:00 AM)
Low73 °F (Feb 28, 5:00 AM)62% (Feb 28, 11:00 AM)29.68 "Hg (Feb 20, 6:00 PM)
Average80 °F85%29.83 "Hg
* Reported Feb 20 5:00 AM — Mar 7 5:00 AM, Pointe-Noire, Weather by CustomWeather, © 2015

Note: Actual official high and low records may vary slightly from our data, if they occured in-between our weather recording intervals... More about our weather records

Advertising

Pointe-Noire weather history for previous 24 hours

 ConditionsComfort  
Time TempWeatherWind HumidityBarometerVisibility
5:00 AM
Sat, Mar 7
73 °FPassing clouds.6 mph94%29.83 "Hg5 mi
4:00 AM73 °FPassing clouds.6 mph94%29.83 "Hg5 mi
3:00 AM73 °FPassing clouds.7 mph94%29.83 "Hg5 mi
2:00 AM73 °FPassing clouds.5 mph94%29.83 "Hg5 mi
1:00 AM73 °FPassing clouds.3 mph94%29.86 "Hg4 mi
12:00 AM75 °FPassing clouds.5 mph94%29.86 "Hg4 mi
11:00 PM
Fri, Mar 6
75 °FPassing clouds.3 mph94%29.86 "Hg4 mi
10:00 PM75 °FPassing clouds.2 mph94%29.86 "Hg4 mi
9:00 PM75 °FPassing clouds.2 mph94%29.86 "Hg4 mi
8:00 PM75 °FPassing clouds.2 mph94%29.86 "Hg4 mi
7:00 PM75 °FLight rain. Passing clouds.6 mph94%29.83 "Hg4 mi
6:00 PM75 °FThunderstorms. Scattered clouds.5 mph94%29.83 "Hg4 mi
5:00 PM75 °FThunderstorms. Scattered clouds.8 mph100%29.83 "Hg4 mi
4:00 PM77 °FThunderstorms. Scattered clouds.6 mph100%29.83 "Hg4 mi
3:00 PM77 °FThunderstorms. Scattered clouds.3 mph94%29.83 "Hg4 mi
2:00 PM77 °FThunderstorms. Scattered clouds.5 mph94%29.86 "Hg1 mi
1:00 PM84 °FThunderstorms. Broken clouds.12 mph79%29.89 "HgN/A
12:00 PM86 °FScattered clouds.5 mph70%29.92 "HgN/A
11:00 AM86 °FScattered clouds.5 mph75%29.92 "HgN/A
10:00 AM86 °FScattered clouds.5 mph75%29.92 "HgN/A
9:00 AM84 °FScattered clouds.5 mph79%29.89 "Hg5 mi
8:00 AM81 °FScattered clouds.5 mph84%29.89 "Hg5 mi
7:00 AM77 °FScattered clouds.2 mph94%29.86 "Hg5 mi
6:00 AM77 °FThunderstorms. Partly cloudy.5 mph94%29.86 "Hg4 mi
Weather by CustomWeather, © 2015

See weather overviewHow to use our weather pages